Overview Statistics Trail Chart Weather Telemetry Raw packets
 

This is the latest recevied weather packets stored in our database for station/object IW2NTF-3. If no packets are shown the sender has not sent any weather packets the latest 10 day(s).

<< 535 536 537 538 539 540 541 >>
Time Temp. Humidity Pressure Rain* Wind** Luminosity Snow
1787927464 27.22° C 70% 1013.3 hPa 0 mm - 128 W/m² -
1787927403 27.22° C 70% 1013.3 hPa 0 mm - 121 W/m² -
1787927344 27.78° C 70% 1013.3 hPa 0 mm - 118 W/m² -
1787927284 27.78° C 69% 1013.3 hPa 0 mm - 120 W/m² -
1787927224 27.78° C 69% 1013.4 hPa 0 mm - 121 W/m² -
1787927163 28.33° C 70% 1013.4 hPa 0 mm - 125 W/m² -
1787927103 28.89° C 69% 1013.4 hPa 0 mm - 130 W/m² -
1787927043 28.89° C 68% 1013.4 hPa 0 mm - 137 W/m² -
1787926983 29.44° C 68% 1013.4 hPa 0 mm - 142 W/m² -
1787926923 30° C 67% 1013.4 hPa 0 mm - 149 W/m² -
1787926863 30.56° C 66% 1013.5 hPa 0 mm - 151 W/m² -
1787926803 31.11° C 64% 1013.5 hPa 0 mm - 155 W/m² -
1787926743 31.11° C 62% 1013.5 hPa 0 mm - 162 W/m² -
1787926684 31.11° C 62% 1013.6 hPa 0 mm - 171 W/m² -
1787926623 31.67° C 63% 1013.6 hPa 0 mm - 179 W/m² -
1787926563 31.67° C 62% 1013.5 hPa 0 mm - 190 W/m² -
1787926503 31.67° C 62% 1013.5 hPa 0 mm - 160 W/m² -
1787926443 31.67° C 62% 1013.4 hPa 0 mm - 153 W/m² -
1787926385 31.67° C 63% 1013.3 hPa 0 mm - 162 W/m² -
1787926323 31.67° C 63% 1013.3 hPa 0 mm - 606 W/m² -
1787926263 31.67° C 63% 1013.3 hPa 0 mm - 606 W/m² -
1787926203 31.67° C 63% 1013.3 hPa 0 mm - 691 W/m² -
1787926143 31.67° C 63% 1013.2 hPa 0 mm - 691 W/m² -
1787926083 31.67° C 63% 1013.2 hPa 0 mm - 691 W/m² -
1787926023 31.11° C 64% 1013.2 hPa 0 mm - 691 W/m² -

* Rain latest hour (hover to see other rain measurements)
** Current wind speed in m/s (hover to see current wind gust speed)